Погода в Камышлове

Погода в Камышлове : погода сейчас, прогноз погоды и архив. Всё, что Вы хотите узнать о погоде в Камышлове!

Хотите узнать прогноз погоды в Камышлове? Тогда Вам сюда: Погода в Камышлове

Поиск расширенной информации на нашем сайте:

Другие новости

Новости СМИ2

Главная страница сайта

Новости сайта

03.07.2017

Напоминаем, что на нашем специализированном сайте Метеоцентр.Азия вы можете получить высокодетализированные автоматические прогнозы погоды по пунктам России, СНГ и мира в авиационном формате (включающие направление и скорость ветра, видимость, явления погоды, количество и форму облачности, нижнюю и верхнюю границу облачности).


Погода в Камышлове - сегодня

Время (UTC), дата Ветер
(°,м/с) 
Видим.   Явления Облачность Т
(°С)
Тd
(°С)
f(%) Тe
(°С)
Pmin
(гПа)
dP
(гПа)
Po
(мм)
O2
(г/м3)
Тmin Tmax R s Состояние
почвы
12 21.05.18 330 (СЗ) 20000 м    8/8 600 м 
[Sc diur, vesp]
+13 +4.4 56 +13  1019.9  1.3  753  289           
18 21.05.18 320 (СЗ) 4000 м    ясно 
+7.3 +1.7 68 +8  1022.2  1.2  755  296           
21 21.05.18 290 (З) 4000 м    ясно 
+4 +0.5 78 +5  1022.2  -0.2  755  300           
00 22.05.18 280 (З) 20000 м    4/0 верхняя 
[Ci fib]
+1.7 +0.2 90 +1  1022.4  0.1  755  302           
18 22.05.18 360 (С) 2{12}  4000 м    ясно 
+10.5 -7.1 28 +11  1020.4  3.7  754  293           
21 22.05.18 350 (С) 4000 м    ясно 
+8.4 -6.7 34 +8  1023.6  756  296           
00 23.05.18 340 (С) 20000 м    ясно 
+6.1 -5.9 42 +6  1026.1  2.4  758  299           
06 23.05.18 310 (СЗ) 20000 м    ясно 
+14.9 -5.5 24 +15  1027.4  0.1  759  291           
09 23.05.18 290 (З) 20000 м    ясно 
+17.9 -6.1 19 +18  1025.5  -1.7  758  287           
12 23.05.18 150 (ЮВ) 20000 м    3/0 верхняя 
[Ci sp]
+20.4 -7.7 14 +20  1023.2  -2.1  756  284           
18 23.05.18 200 (Ю) 4000 м    8/8 600 м 
[Sc]
+17.6 -4.9 21 +18  1017.4  -3.2  752  285           
21 23.05.18 240 (ЮЗ) н/о    н/о 
+16.7 -2.3 27 +18  1014.6  -2.7  750  285           
00 24.05.18 210 (ЮЗ) 20000 м    4/0 средняя 
[Ac trans]
+14.9 +1.7 41 +16  1013.5  -1.2  749  286           
21 24.05.18 030 (СВ) 4000 м    10/10 600 м 
[Sc]
+10.9 +7.5 80 +11  1012.2  -0.1  748  288           
00 25.05.18 010 (С) 20000 м    8/8 600 м 
[Sc]
+8.7 +6.3 85 +9  1012.9  0.5  748  291           
09 25.05.18 360 (С) 20000 м    8/8 600 м кучево-дожд. 
[Cb cap]
+12.4 +4.5 59 +12  1011.7  -0.5  747  287           
12 25.05.18 040 (СВ) 20000 м    10/10 600 м 
[Sc]
+12.3 -0.2 42 +12  1012  -0.4  748  288           
18 25.05.18 010 (С) 5{11}  4000 м    10/10 600 м 
[Sc]
+7 -0.2 60 +5  1014.9  1.6  750  294           
21 25.05.18 010 (С) 4000 м    10/10 600 м 
[Sc]
+4.7 +1 77 +3  1014.9  0.1  749  297           
18 26.05.18 300 (СЗ) 4000 м    ясно 
+3.3 -6.3 49 +4  1021.2  0.4  754  301           
21 26.05.18 270 (З) 4000 м    ясно 
-0.1 -4.7 71 +1  1021.3  0.1  754  304           
00 27.05.18 270 (З) 20000 м    ясно 
-1.6 -5.4 75 -1  1020.5  -0.9  753  306           
06 27.05.18 230 (ЮЗ) 20000 м    3/0 верхняя 
[Cc]
+14.2 -2.6 31 +14  1014.3  -3.6  749  287           
21 27.05.18 270 (З) 5{14}  н/о    н/о 
+12.2 +8.9 80 +11  1001.5  -2.1  740  284           
00 28.05.18 350 (С) 20000 м  {ливн. осадки}  9/9 600 м 
[Sc]
+7.2 +4.6 84 +6  1003.5  1.7  741  290           
Время (UTC), дата Ветер
(°,м/с) 
Видим.   Явления Облачность Т
(°С)
Тd
(°С)
f(%) Тe
(°С)
Pmin
(гПа)
dP
(гПа)
Po
(мм)
O2
(г/м3)
Тmin Tmax R s Состояние
почвы

Для получения пояснительной информации подведите курсор к названию столбца.

ПОГОДА в Камышлове - архив

Всё, что Вы хотите узнать о погоде в Камышлове - удобно и подробно!

Выберите нужную дату (начиная с 1 января 2015* года) и нажмите кнопку "Найти".
Будут отображены архивные сводки погоды по пункту Камышлов, начиная с указанной даты.


Отображать данные в формате CSV (для использования в таблицах Excel)


Внимание! Наш архив погоды предназначен исключительно для личного некоммерческого использования в познавательных целях. Если Вам необходимы официальные справки о состоянии погоды (для производственных, юридических, коммерческих и т.п. целей), обращайтесь в органы Росгидромета.

*Примечание: данная дата относится к архиву по метеостанциям СССР (Россия, СНГ, Балтия).
Архив по метеостанциям Зарубежной Европы и Азии (кроме Китая) хранится 10 дней, по другим регионам земного шара (Китай, Африка, Америка, Австралия, Океания) - 1 день.

Камышлов - район местоположения метеостанции


Название, широта, долгота, высота метеостанции:
Камышлов 56.9°ш. 62.7°д. 127 м над ур. моря [Российская Федерация]

Дополнительная информация

В oтличие oт бoльшинства пoгoдных сайтoв мы публикуем пoдрoбную метеoинфoрмацию в детальнoм прoфессиoнальнoм фoрмате.

Характеристики температуры и влажнoсти вoздуха измеряются на высoте 2 м в тени вдали oт зданий и деревьев.
Скoрoсть ветра измеряется на высoте 10 м (на урoвне рoста челoвека скoрoсть ветра ниже в 1.5-2 раза). Если метеoстанция нахoдится в гoрoде или в лесу, тo скoрoсть ветра занижена на 2-4 м/с пo сравнению с oткрытым местoм. Скoрoсть ветра над акватoриями крупных рек и oзёр, а также на вершинах хoлмoв на 2-5 м/с выше, чем в oбычных услoвиях.
Атмoсфернoе давление в разных тoчках местнoсти мoжет значительнo oтличаться oт давления на метеoстанции, в зависимoсти oт услoвий рельефа (при пoдъёме на 10 м давление пoнижается примернo на 1 мм рт.ст.).